Time,TemperatureF,DewpointF,PressureIn,WindDirection,WindDirectionDegrees,WindSpeedMPH,WindSpeedGustMPH,Humidity,HourlyPrecipIn,Conditions,Clouds,dailyrainin,SoftwareType,DateUTC
2013-06-14 00:00:00,83.0,77.0,-100.00,SE,143,14.0,-999.0,82,0.00,,,-99.99,,2013-06-14 05:00:00,
2013-06-14 00:22:00,83.0,77.0,-100.00,SE,143,14.0,-999.0,82,0.00,,,-99.99,,2013-06-14 05:22:00,
2013-06-14 00:34:00,83.0,77.0,-100.00,SE,143,14.0,-999.0,82,0.00,,,-99.99,,2013-06-14 05:34:00,
2013-06-14 00:43:00,83.0,77.0,-100.00,SE,143,14.0,-999.0,82,0.00,,,-99.99,,2013-06-14 05:43:00,
2013-06-14 00:52:00,83.0,77.0,-100.00,SE,143,14.0,-999.0,82,0.00,,,-99.99,,2013-06-14 05:52:00,
2013-06-14 01:00:00,83.0,77.0,-100.00,SE,140,13.0,-999.0,83,0.00,,,-99.99,,2013-06-14 06:00:00,
2013-06-14 01:22:00,83.0,77.0,-100.00,SE,140,13.0,-999.0,83,0.00,,,-99.99,,2013-06-14 06:22:00,
2013-06-14 01:33:00,83.0,77.0,-100.00,SE,140,13.0,-999.0,83,0.00,,,-99.99,,2013-06-14 06:33:00,
2013-06-14 01:43:00,83.0,77.0,-100.00,SE,140,13.0,-999.0,83,0.00,,,-99.99,,2013-06-14 06:43:00,
2013-06-14 01:52:00,83.0,77.0,-100.00,SE,140,13.0,-999.0,83,0.00,,,-99.99,,2013-06-14 06:52:00,
2013-06-14 02:00:00,83.0,78.0,-100.00,SE,140,14.0,-999.0,85,0.00,,,-99.99,,2013-06-14 07:00:00,
2013-06-14 02:22:00,83.0,78.0,-100.00,SE,140,14.0,-999.0,85,0.00,,,-99.99,,2013-06-14 07:22:00,
2013-06-14 02:33:00,83.0,78.0,-100.00,SE,140,14.0,-999.0,85,0.00,,,-99.99,,2013-06-14 07:33:00,
2013-06-14 02:43:00,83.0,78.0,-100.00,SE,140,14.0,-999.0,85,0.00,,,-99.99,,2013-06-14 07:43:00,
2013-06-14 02:53:00,83.0,78.0,-100.00,SE,140,14.0,-999.0,85,0.00,,,-99.99,,2013-06-14 07:53:00,
2013-06-14 03:00:00,83.0,78.0,-100.00,SE,141,15.0,-999.0,86,0.00,,,-99.99,,2013-06-14 08:00:00,
2013-06-14 03:23:00,83.0,78.0,-100.00,SE,141,15.0,-999.0,86,0.00,,,-99.99,,2013-06-14 08:23:00,
2013-06-14 03:33:00,83.0,78.0,-100.00,SE,141,15.0,-999.0,86,0.00,,,-99.99,,2013-06-14 08:33:00,
2013-06-14 03:43:00,83.0,78.0,-100.00,SE,141,15.0,-999.0,86,0.00,,,-99.99,,2013-06-14 08:43:00,
2013-06-14 03:53:00,83.0,78.0,-100.00,SE,141,15.0,-999.0,86,0.00,,,-99.99,,2013-06-14 08:53:00,
2013-06-14 04:00:00,82.0,78.0,-100.00,SE,135,15.0,-999.0,87,0.00,,,-99.99,,2013-06-14 09:00:00,
2013-06-14 04:22:00,82.0,78.0,-100.00,SE,135,15.0,-999.0,87,0.00,,,-99.99,,2013-06-14 09:22:00,
2013-06-14 04:33:00,82.0,78.0,-100.00,SE,135,15.0,-999.0,87,0.00,,,-99.99,,2013-06-14 09:33:00,
2013-06-14 04:43:00,82.0,78.0,-100.00,SE,135,15.0,-999.0,87,0.00,,,-99.99,,2013-06-14 09:43:00,
2013-06-14 04:53:00,82.0,78.0,-100.00,SE,135,15.0,-999.0,87,0.00,,,-99.99,,2013-06-14 09:53:00,
2013-06-14 05:00:00,83.0,78.0,-100.00,SSE,149,15.0,-999.0,86,0.00,,,-99.99,,2013-06-14 10:00:00,
2013-06-14 05:22:00,83.0,78.0,-100.00,SSE,149,15.0,-999.0,86,0.00,,,-99.99,,2013-06-14 10:22:00,
2013-06-14 05:34:00,83.0,78.0,-100.00,SSE,149,15.0,-999.0,86,0.00,,,-99.99,,2013-06-14 10:34:00,
2013-06-14 05:43:00,83.0,78.0,-100.00,SSE,149,15.0,-999.0,86,0.00,,,-99.99,,2013-06-14 10:43:00,
2013-06-14 05:52:00,83.0,78.0,-100.00,SSE,149,15.0,-999.0,86,0.00,,,-99.99,,2013-06-14 10:52:00,
2013-06-14 06:00:00,82.0,78.0,-100.00,SE,145,14.0,-999.0,85,0.00,,,-99.99,,2013-06-14 11:00:00,
2013-06-14 06:22:00,82.0,78.0,-100.00,SE,145,14.0,-999.0,85,0.00,,,-99.99,,2013-06-14 11:22:00,
2013-06-14 06:32:00,82.0,78.0,-100.00,SE,145,14.0,-999.0,85,0.00,,,-99.99,,2013-06-14 11:32:00,
2013-06-14 06:43:00,82.0,78.0,-100.00,SE,145,14.0,-999.0,85,0.00,,,-99.99,,2013-06-14 11:43:00,
2013-06-14 06:52:00,82.0,78.0,-100.00,SE,145,14.0,-999.0,85,0.00,,,-99.99,,2013-06-14 11:52:00,
2013-06-14 07:00:00,83.0,77.0,-100.00,SE,137,13.0,-999.0,84,0.00,,,-99.99,,2013-06-14 12:00:00,
2013-06-14 07:22:00,83.0,77.0,-100.00,SE,137,13.0,-999.0,84,0.00,,,-99.99,,2013-06-14 12:22:00,
2013-06-14 07:32:00,83.0,77.0,-100.00,SE,137,13.0,-999.0,84,0.00,,,-99.99,,2013-06-14 12:32:00,
2013-06-14 07:43:00,83.0,77.0,-100.00,SE,137,13.0,-999.0,84,0.00,,,-99.99,,2013-06-14 12:43:00,
2013-06-14 07:52:00,83.0,77.0,-100.00,SE,137,13.0,-999.0,84,0.00,,,-99.99,,2013-06-14 12:52:00,
2013-06-14 08:00:00,83.0,77.0,-100.00,ESE,122,13.0,-999.0,82,0.00,,,-99.99,,2013-06-14 13:00:00,
2013-06-14 08:22:00,83.0,77.0,-100.00,ESE,122,13.0,-999.0,82,0.00,,,-99.99,,2013-06-14 13:22:00,
2013-06-14 08:33:00,83.0,77.0,-100.00,ESE,122,13.0,-999.0,82,0.00,,,-99.99,,2013-06-14 13:33:00,
2013-06-14 08:43:00,83.0,77.0,-100.00,ESE,122,13.0,-999.0,82,0.00,,,-99.99,,2013-06-14 13:43:00,
2013-06-14 08:53:00,83.0,77.0,-100.00,ESE,122,13.0,-999.0,82,0.00,,,-99.99,,2013-06-14 13:53:00,
2013-06-14 09:00:00,83.0,77.0,-100.00,SE,146,15.0,-999.0,82,0.00,,,-99.99,,2013-06-14 14:00:00,
2013-06-14 09:22:00,83.0,77.0,-100.00,SE,146,15.0,-999.0,82,0.00,,,-99.99,,2013-06-14 14:22:00,
2013-06-14 09:34:00,83.0,77.0,-100.00,SE,146,15.0,-999.0,82,0.00,,,-99.99,,2013-06-14 14:34:00,
2013-06-14 09:43:00,83.0,77.0,-100.00,SE,146,15.0,-999.0,82,0.00,,,-99.99,,2013-06-14 14:43:00,
2013-06-14 09:52:00,83.0,77.0,-100.00,SE,146,15.0,-999.0,82,0.00,,,-99.99,,2013-06-14 14:52:00,
2013-06-14 10:00:00,83.0,76.0,-100.00,SSE,152,14.0,-999.0,78,0.00,,,-99.99,,2013-06-14 15:00:00,
2013-06-14 10:23:00,83.0,76.0,-100.00,SSE,152,14.0,-999.0,78,0.00,,,-99.99,,2013-06-14 15:23:00,
2013-06-14 10:33:00,83.0,76.0,-100.00,SSE,152,14.0,-999.0,78,0.00,,,-99.99,,2013-06-14 15:33:00,
2013-06-14 10:44:00,83.0,76.0,-100.00,SSE,152,14.0,-999.0,78,0.00,,,-99.99,,2013-06-14 15:44:00,
2013-06-14 10:53:00,83.0,76.0,-100.00,SSE,152,14.0,-999.0,78,0.00,,,-99.99,,2013-06-14 15:53:00,
2013-06-14 11:00:00,83.0,76.0,-100.00,SE,145,14.0,-999.0,80,0.00,,,-99.99,,2013-06-14 16:00:00,
2013-06-14 11:22:00,83.0,76.0,-100.00,SE,145,14.0,-999.0,80,0.00,,,-99.99,,2013-06-14 16:22:00,
2013-06-14 11:32:00,83.0,76.0,-100.00,SE,145,14.0,-999.0,80,0.00,,,-99.99,,2013-06-14 16:32:00,
2013-06-14 11:43:00,83.0,76.0,-100.00,SE,145,14.0,-999.0,80,0.00,,,-99.99,,2013-06-14 16:43:00,
2013-06-14 11:53:00,83.0,76.0,-100.00,SE,145,14.0,-999.0,80,0.00,,,-99.99,,2013-06-14 16:53:00,
2013-06-14 12:00:00,84.0,77.0,-100.00,SSE,147,14.0,-999.0,79,0.00,,,-99.99,,2013-06-14 17:00:00,
2013-06-14 12:22:00,84.0,77.0,-100.00,SSE,147,14.0,-999.0,79,0.00,,,-99.99,,2013-06-14 17:22:00,
2013-06-14 12:34:00,84.0,77.0,-100.00,SSE,147,14.0,-999.0,79,0.00,,,-99.99,,2013-06-14 17:34:00,
2013-06-14 12:43:00,84.0,77.0,-100.00,SSE,147,14.0,-999.0,79,0.00,,,-99.99,,2013-06-14 17:43:00,
2013-06-14 12:53:00,84.0,77.0,-100.00,SSE,147,14.0,-999.0,79,0.00,,,-99.99,,2013-06-14 17:53:00,
2013-06-14 13:00:00,84.0,77.0,-100.00,SE,142,13.0,-999.0,81,0.00,,,-99.99,,2013-06-14 18:00:00,
2013-06-14 13:22:00,84.0,77.0,-100.00,SE,142,13.0,-999.0,81,0.00,,,-99.99,,2013-06-14 18:22:00,
2013-06-14 13:32:00,84.0,77.0,-100.00,SE,142,13.0,-999.0,81,0.00,,,-99.99,,2013-06-14 18:32:00,
2013-06-14 13:42:00,84.0,77.0,-100.00,SE,142,13.0,-999.0,81,0.00,,,-99.99,,2013-06-14 18:42:00,
2013-06-14 13:52:00,84.0,77.0,-100.00,SE,142,13.0,-999.0,81,0.00,,,-99.99,,2013-06-14 18:52:00,
2013-06-14 14:00:00,84.0,77.0,-100.00,SSE,150,10.0,-999.0,80,0.00,,,-99.99,,2013-06-14 19:00:00,
2013-06-14 14:22:00,84.0,77.0,-100.00,SSE,150,10.0,-999.0,80,0.00,,,-99.99,,2013-06-14 19:22:00,
2013-06-14 14:32:00,84.0,77.0,-100.00,SSE,150,10.0,-999.0,80,0.00,,,-99.99,,2013-06-14 19:32:00,
2013-06-14 14:43:00,84.0,77.0,-100.00,SSE,150,10.0,-999.0,80,0.00,,,-99.99,,2013-06-14 19:43:00,
2013-06-14 14:53:00,84.0,77.0,-100.00,SSE,150,10.0,-999.0,80,0.00,,,-99.99,,2013-06-14 19:53:00,
2013-06-14 15:00:00,84.0,78.0,-100.00,SE,125,12.0,-999.0,80,0.00,,,-99.99,,2013-06-14 20:00:00,
2013-06-14 15:22:00,84.0,78.0,-100.00,SE,125,12.0,-999.0,80,0.00,,,-99.99,,2013-06-14 20:22:00,
2013-06-14 15:33:00,84.0,78.0,-100.00,SE,125,12.0,-999.0,80,0.00,,,-99.99,,2013-06-14 20:33:00,
2013-06-14 15:43:00,84.0,78.0,-100.00,SE,125,12.0,-999.0,80,0.00,,,-99.99,,2013-06-14 20:43:00,
2013-06-14 15:53:00,84.0,78.0,-100.00,SE,125,12.0,-999.0,80,0.00,,,-99.99,,2013-06-14 20:53:00,
2013-06-14 16:00:00,84.0,77.0,-100.00,ESE,120,14.0,-999.0,80,0.00,,,-99.99,,2013-06-14 21:00:00,
2013-06-14 16:22:00,84.0,77.0,-100.00,ESE,120,14.0,-999.0,80,0.00,,,-99.99,,2013-06-14 21:22:00,
2013-06-14 16:34:00,84.0,77.0,-100.00,ESE,120,14.0,-999.0,80,0.00,,,-99.99,,2013-06-14 21:34:00,
2013-06-14 16:42:00,84.0,77.0,-100.00,ESE,120,14.0,-999.0,80,0.00,,,-99.99,,2013-06-14 21:42:00,
2013-06-14 16:52:00,84.0,77.0,-100.00,ESE,120,14.0,-999.0,80,0.00,,,-99.99,,2013-06-14 21:52:00,
2013-06-14 17:00:00,84.0,77.0,-100.00,SE,127,13.0,-999.0,80,0.00,,,-99.99,,2013-06-14 22:00:00,
2013-06-14 17:22:00,84.0,77.0,-100.00,SE,127,13.0,-999.0,80,0.00,,,-99.99,,2013-06-14 22:22:00,
2013-06-14 17:33:00,84.0,77.0,-100.00,SE,127,13.0,-999.0,80,0.00,,,-99.99,,2013-06-14 22:33:00,
2013-06-14 17:43:00,84.0,77.0,-100.00,SE,127,13.0,-999.0,80,0.00,,,-99.99,,2013-06-14 22:43:00,
2013-06-14 17:53:00,84.0,77.0,-100.00,SE,127,13.0,-999.0,80,0.00,,,-99.99,,2013-06-14 22:53:00,
2013-06-14 18:00:00,84.0,78.0,-100.00,ESE,122,14.0,-999.0,81,0.00,,,-99.99,,2013-06-14 23:00:00,
2013-06-14 18:22:00,84.0,78.0,-100.00,ESE,122,14.0,-999.0,81,0.00,,,-99.99,,2013-06-14 23:22:00,
2013-06-14 18:33:00,84.0,78.0,-100.00,ESE,122,14.0,-999.0,81,0.00,,,-99.99,,2013-06-14 23:33:00,
2013-06-14 18:43:00,84.0,78.0,-100.00,ESE,122,14.0,-999.0,81,0.00,,,-99.99,,2013-06-14 23:43:00,
2013-06-14 18:52:00,84.0,78.0,-100.00,ESE,122,14.0,-999.0,81,0.00,,,-99.99,,2013-06-14 23:52:00,
2013-06-14 19:00:00,84.0,77.0,-100.00,ESE,115,15.0,-999.0,81,0.00,,,-99.99,,2013-06-15 00:00:00,
2013-06-14 19:22:00,84.0,77.0,-100.00,ESE,115,15.0,-999.0,81,0.00,,,-99.99,,2013-06-15 00:22:00,
2013-06-14 19:34:00,84.0,77.0,-100.00,ESE,115,15.0,-999.0,81,0.00,,,-99.99,,2013-06-15 00:34:00,
2013-06-14 19:43:00,84.0,77.0,-100.00,ESE,115,15.0,-999.0,81,0.00,,,-99.99,,2013-06-15 00:43:00,
2013-06-14 19:53:00,84.0,77.0,-100.00,ESE,115,15.0,-999.0,81,0.00,,,-99.99,,2013-06-15 00:53:00,
2013-06-14 20:00:00,84.0,78.0,-100.00,ESE,123,15.0,-999.0,82,0.00,,,-99.99,,2013-06-15 01:00:00,
2013-06-14 20:22:00,84.0,78.0,-100.00,ESE,123,15.0,-999.0,82,0.00,,,-99.99,,2013-06-15 01:22:00,
2013-06-14 20:33:00,84.0,78.0,-100.00,ESE,123,15.0,-999.0,82,0.00,,,-99.99,,2013-06-15 01:33:00,
2013-06-14 20:43:00,84.0,78.0,-100.00,ESE,123,15.0,-999.0,82,0.00,,,-99.99,,2013-06-15 01:43:00,
2013-06-14 20:54:00,84.0,78.0,-100.00,ESE,123,15.0,-999.0,82,0.00,,,-99.99,,2013-06-15 01:54:00,
2013-06-14 21:00:00,83.0,78.0,-100.00,SE,140,15.0,-999.0,82,0.00,,,-99.99,,2013-06-15 02:00:00,
2013-06-14 21:22:00,83.0,78.0,-100.00,SE,140,15.0,-999.0,82,0.00,,,-99.99,,2013-06-15 02:22:00,
2013-06-14 21:33:00,83.0,78.0,-100.00,SE,140,15.0,-999.0,82,0.00,,,-99.99,,2013-06-15 02:33:00,
2013-06-14 21:43:00,83.0,78.0,-100.00,SE,140,15.0,-999.0,82,0.00,,,-99.99,,2013-06-15 02:43:00,
2013-06-14 21:53:00,83.0,78.0,-100.00,SE,140,15.0,-999.0,82,0.00,,,-99.99,,2013-06-15 02:53:00,
2013-06-14 22:00:00,83.0,78.0,-100.00,SE,138,14.0,-999.0,83,0.00,,,-99.99,,2013-06-15 03:00:00,
2013-06-14 22:23:00,83.0,78.0,-100.00,SE,138,14.0,-999.0,83,0.00,,,-99.99,,2013-06-15 03:23:00,
2013-06-14 22:32:00,83.0,78.0,-100.00,SE,138,14.0,-999.0,83,0.00,,,-99.99,,2013-06-15 03:32:00,
2013-06-14 22:43:00,83.0,78.0,-100.00,SE,138,14.0,-999.0,83,0.00,,,-99.99,,2013-06-15 03:43:00,
2013-06-14 22:53:00,83.0,78.0,-100.00,SE,138,14.0,-999.0,83,0.00,,,-99.99,,2013-06-15 03:53:00,
2013-06-14 23:00:00,83.0,78.0,-100.00,SE,141,14.0,-999.0,84,0.00,,,-99.99,,2013-06-15 04:00:00,
2013-06-14 23:22:00,83.0,78.0,-100.00,SE,141,14.0,-999.0,84,0.00,,,-99.99,,2013-06-15 04:22:00,
2013-06-14 23:34:00,83.0,78.0,-100.00,SE,141,14.0,-999.0,84,0.00,,,-99.99,,2013-06-15 04:34:00,
2013-06-14 23:43:00,83.0,78.0,-100.00,SE,141,14.0,-999.0,84,0.00,,,-99.99,,2013-06-15 04:43:00,
2013-06-14 23:54:00,83.0,78.0,-100.00,SE,141,14.0,-999.0,84,0.00,,,-99.99,,2013-06-15 04:54:00,